Regional Weather Roundup
Issued by NWS

Home | Current Version | Previous Version | Text Only | Print | Product List | Glossary On
Versions: 1 2 3 4 5 6 7 8 9 10 11 12 13 14 15 16 17 18 19 20 21 22 23 24 25 26 27 28 29 30 31 32 33 34 35 36 37 38 39 40 41 42 43 44 45 46 47
000
ASUS45 KREV 220210
RWRNV
NEVADA REGIONAL WEATHER ROUNDUP
NATIONAL WEATHER SERVICE RENO NV
700 PM PDT TUE OCT 21 2014

NOTE: "FAIR" INDICATES FEW OR NO CLOUDS BELOW 12,000 FEET WITH NO
SIGNIFICANT WEATHER AND/OR OBSTRUCTIONS TO VISIBILITY.

NVZ001-003-004-220300-
WESTERN NEVADA

CITY           SKY/WX    TMP DP  RH WIND       PRES   REMARKS
RENO           MOCLDY    55  28  35 N10       30.06R
CARSON CITY    FAIR      55  23  28 NE12G21   30.05R
MINDEN         FAIR      54  23  30 N10       30.05
SLIDE MTN        N/A     36  27  69 SW6         N/A
PYRAMID LAKE     N/A     54 N/A N/A W5          N/A
FALLON         MOCLDY    53  23  31 CALM      30.04R
LOVELOCK       MOCLDY    52  21  29 NE5       30.04S
HAWTHORNE      CLEAR     57  27  30 NW7       30.04R
$$

NVZ002-CAZ072-073-220300-
NORTHERN AND CENTRAL SIERRA

CITY           SKY/WX    TMP DP  RH WIND       PRES   REMARKS
TRUCKEE        PTCLDY    45  30  57 CALM      30.10R
SQUAW VLY 8000 NOT AVBL
SUSANVILLE     CLEAR     48  34  57 W3        30.06
BLUE CANYON    PTCLDY    47  36  65 CALM      30.10S
MAMMOTH LAKES  FAIR      52  18  25 W8        30.09R
$$

NVZ030-031-036-220300-
NORTHERN NEVADA

CITY           SKY/WX    TMP DP  RH WIND       PRES   REMARKS
ELKO           PTCLDY    47  17  30 NW5       30.07R
WINNEMUCCA     PTCLDY    47  26  44 N5        30.08R
WENDOVER       CLEAR     54  28  37 NE17      30.06R
$$

NVZ035-037-220300-
CENTRAL NEVADA

CITY           SKY/WX    TMP DP  RH WIND       PRES   REMARKS
ELY            PTCLDY    48   9  20 W7        30.07R
EUREKA           N/A     45  13  27 NW6       30.07S
$$

NVZ013-014-220300-
SOUTH CENTRAL NEVADA

CITY           SKY/WX    TMP DP  RH WIND       PRES   REMARKS
TONOPAH        PTCLDY    59   3  10 NW16      30.03R
$$

NVZ017-020-022-220300-
SOUTHERN NEVADA

CITY           SKY/WX    TMP DP  RH WIND       PRES   REMARKS
LAS VEGAS      PTCLDY    79  20  11 SW15      29.78R
N. LAS VEGAS   PTCLDY    79  19  10 SW10      29.80R
NELLIS AFB     PTCLDY    78  21  12 S10       29.80R
HENDERSON      PTCLDY    75  22  14 S13       29.85R
MERCURY        PTCLDY    67  24  19 N5        29.90R
$$



USA.gov is the U.S. government's official web portal to all federal, state and local government web resources and services.